Regional Weather Roundup
Issued by NWS Portland, ME

Current Version | Previous Version | Text Only | Print | Product List | Glossary On
Versions: 1 2 3 4 5 6 7 8 9 10 11 12 13 14 15 16 17 18 19 20 21 22 23 24 25 26 27 28 29 30 31 32 33 34 35 36 37 38 39 40 41 42 43 44 45 46 47 48 49 50
000
ASUS41 KGYX 271210
RWRGYX
WEATHER ROUNDUP FOR MAINE AND NEW HAMPSHIRE
NATIONAL WEATHER SERVICE GRAY ME
700 AM EST SAT DEC 27 2014

MEZ002-005-006-010-012-015-018-020-021-024-026-027-029-271300-
MAINE

CITY           SKY/WX    TMP DP  RH WIND       PRES   REMARKS
PORTLAND       PTCLDY    31  26  82 W6        30.13R
6HR MIN TEMP:  28; 6HR MAX TEMP:  39;

SANFORD        PTCLDY    34  25  69 SW7       30.13R
BAR HARBOR     CLOUDY    37  32  81 W3        30.08R
WISCASSET      CLOUDY    28  26  92 W3        30.14R
6HR MIN TEMP:  26; 6HR MAX TEMP:  28;

ROCKLAND       CLEAR     28  27  93 CALM      30.11R
FRYEBURG       CLEAR     30  25  81 CALM      30.10R
6HR MIN TEMP:  30; 6HR MAX TEMP:  43;

LEWISTONAUBURN PTCLDY    27  23  86 SE7       30.10S
AUGUSTA        CLEAR     34  27  75 SW5       30.10R
6HR MIN TEMP:  34; 6HR MAX TEMP:  39;

WATERVILLE     CLEAR     37  27  65 W8        30.06R
BANGOR         CLOUDY    37  28  70 SW5       30.07R
6HR MIN TEMP:  37; 6HR MAX TEMP:  40;

GREENVILLE       N/A     35  28  75 VRB7      29.98R
6HR MIN TEMP:  34; 6HR MAX TEMP:  36;

MILLINOCKET    CLOUDY    39  29  67 W7        30.03R
6HR MIN TEMP:  38; 6HR MAX TEMP:  40;

HOULTON        CLOUDY    37  28  70 W3        29.97R
6HR MIN TEMP:  37; 6HR MAX TEMP:  39;

PRESQUE ISLE   MOCLDY    34  23  64 NW7       29.97R
6HR MIN TEMP:  32; 6HR MAX TEMP:  37;

FRENCHVILLE    CLEAR     28  20  71 NW10      29.93R WCI  19
6HR MIN TEMP:  28; 6HR MAX TEMP:  32;

CARIBOU        CLOUDY    32  24  72 W6        29.95R
6HR MIN TEMP:  30; 6HR MAX TEMP:  36;

$$

NHZ002-005-008-009-011-012-014-271300-
NEW HAMPSHIRE

CITY           SKY/WX    TMP DP  RH WIND       PRES   REMARKS
PORTSMOUTH     MOCLDY    36  28  73 W9        30.14R
ROCHESTER      MOCLDY    34  28  79 CALM      30.14R
6HR MIN TEMP:  32; 6HR MAX TEMP:  36;

NASHUA         MOCLDY    35  30  82 CALM      30.17R
MANCHESTER     MOCLDY    33  28  81 CALM      30.15R
6HR MIN TEMP:  29; 6HR MAX TEMP:  35;

CONCORD        MOCLDY    27  25  92 CALM      30.16R
6HR MIN TEMP:  24; 6HR MAX TEMP:  28;

LACONIA        CLOUDY    37  28  70 SW8       30.11R
PLYMOUTH       CLOUDY    37  33  87 W3        30.13R
BERLIN         CLEAR     37  27  67 CALM      30.09R
6HR MIN TEMP:  37; 6HR MAX TEMP:  39;

WHITEFIELD     CLOUDY    38  29  70 S3        30.12R
6HR MIN TEMP:  33; 6HR MAX TEMP:  39;

JAFFREY        CLOUDY    32  27  81 S6        30.15R
6HR MIN TEMP:  28; 6HR MAX TEMP:  34;

KEENE          CLOUDY    27  25  93 CALM      30.17R
LEBANON        CLOUDY    30  27  88 CALM      30.15R
6HR MIN TEMP:  27; 6HR MAX TEMP:  32;

MT WASHINGTON  FOG       16  16 100 NW52G62     N/A  VSB 0   WCI  -9
6HR MIN TEMP:  15; 6HR MAX TEMP:  18;

$$

VTZ005-007-008-271300-
VERMONT

CITY           SKY/WX    TMP DP  RH WIND       PRES   REMARKS
ST JOHNSBURY     N/A     33  29  85 MISG      30.12R
MONTPELIER     CLOUDY    37  30  75 CALM      30.16R
BURLINGTON     CLOUDY    39  28  64 CALM      30.16R
$$

MAZ007-012-024-CTZ003-RIZ002-NYZ038-NYZ072-271300-
SOUTHERN NEW ENGLAND AND NY

CITY           SKY/WX    TMP DP  RH WIND       PRES   REMARKS
BOSTON         PTCLDY    40  29  64 W8        30.18R
WORCESTER      MOCLDY    33  27  78 W8        30.16R
NANTUCKET      CLEAR     39  32  76 W5        30.19R
PROVIDENCE     PTCLDY    34  27  75 W6        30.20R
HARTFORD       PTCLDY    30  27  88 S5        30.20R
ALBANY         MOCLDY    32  27  81 CALM      30.21R
NEW YORK CITY  MOCLDY    45  31  58 NW7       30.23R
$$

ANZ081-ANZ082-ANZ150-NHZ014-MEZ023>029-271300-
COASTAL MARINE OBSERVATIONS

STATION/POSITION TIME  TEMP    WIND        PRES    WAVE
                       AIR SEA DIR/SP/G            HT/PER
                 (UTC) (F)     (DEG/KT/KT) (MB)    (FT/S)
MOUNT DESERT ROC 1100   43                 1018.3R
MATINICUS ROCK   1200          260/ 15/ 16 1019.4R
PORTLAND WX BUOY 1150   40 42  280/ 12/ 14 1020.2R   3/15
WELLS            1100   37 42  280/  6/  9 1019.1R
ISLE OF SHOALS   1200   40     260/ 13/ 14 1020.3R
JEFFREYS LEDGE   1121      48                N/A     4/13
CASHES LEDGE BUO 1150   44 48  270/ 10/ 12 1020.0R   4/15
$$

.............KEY..............
   WCI - WIND CHILL
   TC  - TEMPERATURE IN CELSIUS
   VSB - VISIBILITY IN MILES
   HX  - HEAT INDEX
   FAIR- INDICATES FEW OR NO CLOUDS BELOW 12,000 FT, WITH NO
         SIGNIFICANT WEATHER AND/OR OBSTRUCTIONS TO VISIBILITY.




USA.gov is the U.S. government's official web portal to all federal, state and local government web resources and services.